Location: Emporia
(38.4040°N, 96.1810°W)
Time: 11:56:50
(UTC-05:00)

Amateur Radio Satellites - All Passes

Search period start: 24 July 2014 11:26
Search period end: 25 July 2014 11:26
Location: Emporia, 38.4040°N, 96.1810°W

Satellite Date Start Highest point End Downlink Frequencies (MHz)
Time Altitude Azimuth
PCSat 24 Jul 11:37:12 11:42:35 60° 60° (ENE) 11:47:55 145.825 MHz
PANSAT 24 Jul 11:51:51 11:52:47 11° 197° (SSW) 11:53:43 not established
UKube-1 24 Jul 11:53:59 11:57:00 19° 294° (WNW) 12:00:00 145.840 MHz, 145.915 MHz
Sapphire 24 Jul 12:46:50 12:51:47 37° 250° (WSW) 12:56:43 437.095 MHz 1200 baud AX-25 AFSK
RS-15 24 Jul 12:50:31 12:55:54 15° 98° (E) 13:01:11 29.354 - 29.394 USB, Beacon 29.352 USB
FUNcube-1 24 Jul 12:51:44 12:54:52 21° 291° (WNW) 12:58:01 145.950 - 145.970 MHz USB
Oscar 16 24 Jul 12:56:10 12:59:21 17° 63° (ENE) 13:02:31 437.025 USB, Beacon 2401.1428
PCSat 24 Jul 13:22:03 13:25:27 17° 256° (WSW) 13:28:50 145.825 MHz
AO-27 24 Jul 13:24:43 13:27:29 15° 62° (ENE) 13:30:14 436.795 MHz FM
AO-Echo 24 Jul 13:25:30 13:28:24 15° 62° (ENE) 13:31:18 ?
Uribyol 2 24 Jul 13:27:18 13:30:22 16° 63° (ENE) 13:33:27 436.500 FM
JAS-1B 24 Jul 13:27:46 13:33:36 20° 52° (NE) 13:39:46 435.800 - 435.900 CW/SSB
Oscar 19 24 Jul 14:05:36 14:10:41 74° 75° (ENE) 14:15:48 437.125 CW, 437.150 USB
Oscar 16 24 Jul 14:33:11 14:38:12 57° 259° (W) 14:43:16 437.025 USB, Beacon 2401.1428
TMSAT-1 24 Jul 14:35:58 14:39:41 20° 64° (ENE) 14:43:25 436.925 FM
SO-50 24 Jul 14:37:02 14:41:29 76° 302° (WNW) 14:46:02 436.795 FM
ITAMSAT 1 24 Jul 14:43:17 14:48:29 79° 75° (ENE) 14:53:44 435.822 SSB
KITSAT 1 24 Jul 14:49:04 14:53:45 16° 33° (NNE) 14:58:24 435.175 FM
RS-15 24 Jul 14:55:10 15:06:19 76° 116° (ESE) 15:17:13 29.354 - 29.394 USB, Beacon 29.352 USB
Gurwin Techsat 1B 24 Jul 14:55:35 15:00:31 41° 70° (ENE) 15:05:29 435.225 FM
AO-27 24 Jul 15:01:10 15:06:22 70° 258° (WSW) 15:11:36 436.795 MHz FM
AO-Echo 24 Jul 15:01:17 15:06:31 70° 258° (WSW) 15:11:51 ?
Uribyol 2 24 Jul 15:04:09 15:09:18 62° 259° (WSW) 15:14:28 436.500 FM
JAS-1B 24 Jul 15:13:58 15:22:22 79° 73° (ENE) 15:32:05 435.800 - 435.900 CW/SSB
Uosat F 24 Jul 15:19:56 15:21:12 11° 60° (ENE) 15:22:27 435.120 FM
UOSAT-12 24 Jul 15:26:32 15:30:12 24° 111° (ESE) 15:33:55 437.025 FM, 437.400 FM
Oscar 19 24 Jul 15:48:55 15:50:32 11° 270° (W) 15:52:09 437.125 CW, 437.150 USB
AO-7 24 Jul 15:58:07 16:05:46 42° 63° (ENE) 16:13:27 29.400 - 29.500 MHz
TMSAT-1 24 Jul 16:14:04 16:19:12 51° 260° (W) 16:24:22 436.925 FM
SO-50 24 Jul 16:21:44 16:22:51 11° 321° (NW) 16:23:59 436.795 FM
ITAMSAT 1 24 Jul 16:27:07 16:28:32 11° 270° (W) 16:29:56 435.822 SSB
Gurwin Techsat 1B 24 Jul 16:36:27 16:40:36 23° 266° (W) 16:44:47 435.225 FM
KITSAT 1 24 Jul 16:43:03 16:51:02 59° 56° (NE) 16:58:57 435.175 FM
Uosat F 24 Jul 16:54:10 16:59:13 88° 256° (WSW) 17:04:18 435.120 FM
UOSAT-12 24 Jul 17:05:53 17:10:08 36° 308° (NW) 17:14:28 437.025 FM, 437.400 FM
JAS-1B 24 Jul 17:07:33 17:13:53 23° 273° (W) 17:20:53 435.800 - 435.900 CW/SSB
RS-15 24 Jul 17:10:04 17:19:43 34° 320° (NW) 17:29:20 29.354 - 29.394 USB, Beacon 29.352 USB
JAS-2 24 Jul 17:18:42 17:23:52 20° 60° (ENE) 17:28:53 435.800 - 435.900 CW/SSB, 435.910 FM
OPAL 24 Jul 17:29:46 17:34:50 76° 105° (ESE) 17:39:56 ?
Hamsat 24 Jul 17:43:15 17:46:08 18° 68° (ENE) 17:49:01 145.90 MHz
Saudisat 1A 24 Jul 17:48:47 17:52:45 32° 51° (NE) 17:56:40 436.775 MHz
AO-7 24 Jul 17:50:40 17:58:27 43° 260° (W) 18:06:19 29.400 - 29.500 MHz
KITSAT 1 24 Jul 18:39:15 18:45:54 29° 254° (WSW) 18:52:31 435.175 FM
JAS-2 24 Jul 19:00:07 19:08:00 87° 256° (WSW) 19:15:37 435.800 - 435.900 CW/SSB, 435.910 FM
OPAL 24 Jul 19:10:48 19:13:05 13° 301° (WNW) 19:15:23 ?
Hamsat 24 Jul 19:18:04 19:21:51 33° 263° (W) 19:25:39 145.90 MHz
Saudisat 1A 24 Jul 19:28:35 19:32:11 25° 248° (WSW) 19:35:46 436.775 MHz
RS-15 24 Jul 19:30:52 19:37:00 16° 355° (N) 19:43:10 29.354 - 29.394 USB, Beacon 29.352 USB
STRAND 1 24 Jul 19:45:10 19:50:00 41° 99° (E) 19:54:47 ?
SO-67 24 Jul 19:52:19 19:55:46 90° 260° (W) 19:59:16 435.3500 MHz FM
HO-68 24 Jul 20:03:19 20:08:01 19° 57° (ENE) 20:12:42 435.675 MHz FM
JAS-2 24 Jul 20:49:18 20:53:43 16° 271° (W) 20:58:06 435.800 - 435.900 CW/SSB, 435.910 FM
UKube-1 24 Jul 21:11:24 21:15:06 28° 69° (ENE) 21:18:49 145.840 MHz, 145.915 MHz
STRAND 1 24 Jul 21:25:00 21:28:54 22° 295° (WNW) 21:32:46 ?
SO-50 24 Jul 21:32:50 21:33:11 10° 38° (NE) 21:33:31 436.795 FM
RS-15 24 Jul 21:46:22 21:55:04 26° 32° (NNE) 22:03:55 29.354 - 29.394 USB, Beacon 29.352 USB
HO-68 24 Jul 21:47:40 21:54:51 82° 255° (WSW) 22:02:04 435.675 MHz FM
Oscar 11 24 Jul 22:01:18 22:05:24 45° 73° (ENE) 22:09:31 145.825 FM, Beacon 2401.500 USB
FUNcube-1 24 Jul 22:10:36 22:13:52 21° 68° (ENE) 22:17:05 145.950 - 145.970 MHz USB
MaSat-1 24 Jul 22:33:46 22:37:22 43° 108° (ESE) 22:41:36 437.345 MHz
UKube-1 24 Jul 22:47:42 22:51:15 24° 264° (W) 22:54:49 145.840 MHz, 145.915 MHz
SO-50 24 Jul 23:09:56 23:14:40 63° 57° (ENE) 23:19:26 436.795 FM
Oscar 11 24 Jul 23:39:33 23:41:49 14° 268° (W) 23:44:05 145.825 FM, Beacon 2401.500 USB
HO-68 24 Jul 23:40:49 23:43:29 12° 271° (W) 23:46:10 435.675 MHz FM
FUNcube-1 24 Jul 23:46:09 23:50:05 32° 263° (W) 23:53:56 145.950 - 145.970 MHz USB
UOSAT-12 24 Jul 23:57:26 00:00:37 18° 44° (NE) 00:03:46 437.025 FM, 437.400 FM
RS-15 24 Jul 23:58:24 00:09:31 78° 58° (ENE) 00:21:01 29.354 - 29.394 USB, Beacon 29.352 USB
Lituanica SAT-1 25 Jul 00:01:38 00:03:40 52° 138° (SE) 00:05:43 437.275 MHz beacon
MaSat-1 25 Jul 00:12:18 00:15:05 17° 310° (NW) 00:18:08 437.345 MHz
SO-50 25 Jul 00:52:15 00:54:43 14° 252° (WSW) 00:57:11 436.795 FM
ISS 25 Jul 01:05:24 01:08:23 31° 134° (SE) 01:11:22 145.800 FM
UOSAT-12 25 Jul 01:36:31 01:41:12 63° 242° (WSW) 01:45:47 437.025 FM, 437.400 FM
Sapphire 25 Jul 01:43:58 01:48:49 35° 110° (ESE) 01:53:41 437.095 MHz 1200 baud AX-25 AFSK
RS-15 25 Jul 02:12:12 02:20:44 27° 257° (WSW) 02:29:33 29.354 - 29.394 USB, Beacon 29.352 USB
PCSat 25 Jul 02:17:12 02:22:35 76° 115° (ESE) 02:28:00 145.825 MHz
Oscar 19 25 Jul 02:19:08 02:23:37 29° 96° (E) 02:28:05 437.125 CW, 437.150 USB
AO-40 25 Jul 02:33:41 03:34:55 13° 111° (ESE) 04:18:08 Beacon 2401.320
ISS 25 Jul 02:42:06 02:45:03 28° 330° (NNW) 02:48:01 145.800 FM
Oscar 16 25 Jul 02:46:17 02:51:22 57° 101° (E) 02:56:27 437.025 USB, Beacon 2401.1428
ITAMSAT 1 25 Jul 02:58:11 03:02:47 31° 97° (E) 03:07:19 435.822 SSB
JAS-1B 25 Jul 03:03:15 03:11:16 31° 90° (E) 03:18:21 435.800 - 435.900 CW/SSB
OPAL 25 Jul 03:07:53 03:10:12 13° 59° (ENE) 03:12:30 ?
AO-Echo 25 Jul 03:10:36 03:15:29 44° 98° (E) 03:20:11 ?
Gurwin Techsat 1B 25 Jul 03:14:13 03:17:50 18° 93° (E) 03:21:25 435.225 FM
AO-27 25 Jul 03:15:54 03:20:55 48° 100° (E) 03:25:53 436.795 MHz FM
Uribyol 2 25 Jul 03:18:28 03:23:31 53° 100° (E) 03:28:32 436.500 FM
Sapphire 25 Jul 03:27:26 03:32:13 31° 307° (NW) 03:37:02 437.095 MHz 1200 baud AX-25 AFSK
Oscar 19 25 Jul 03:58:24 04:02:54 31° 292° (WNW) 04:07:23 437.125 CW, 437.150 USB
PCSat 25 Jul 04:03:08 04:06:36 17° 314° (NW) 04:10:05 145.825 MHz
AO-7 25 Jul 04:04:45 04:07:29 12° 88° (E) 04:10:13 29.400 - 29.500 MHz
ISS 25 Jul 04:22:27 04:22:38 10° 349° (N) 04:22:48 145.800 FM
Oscar 16 25 Jul 04:27:01 04:30:14 17° 297° (WNW) 04:33:27 437.025 USB, Beacon 2401.1428
TMSAT-1 25 Jul 04:31:15 04:36:33 74° 102° (ESE) 04:41:49 436.925 FM
ITAMSAT 1 25 Jul 04:37:45 04:42:10 29° 292° (WNW) 04:46:34 435.822 SSB
OPAL 25 Jul 04:43:32 04:48:28 71° 256° (WSW) 04:53:25 ?
AO-Echo 25 Jul 04:50:09 04:53:53 21° 295° (WNW) 04:57:33 ?
JAS-1B 25 Jul 04:52:53 05:02:17 62° 291° (WNW) 05:10:26 435.800 - 435.900 CW/SSB
Gurwin Techsat 1B 25 Jul 04:52:55 04:58:04 51° 288° (WNW) 05:03:10 435.225 FM
AO-27 25 Jul 04:56:21 05:00:03 20° 296° (WNW) 05:03:44 436.795 MHz FM
Uribyol 2 25 Jul 04:59:08 05:02:33 18° 296° (WNW) 05:05:58 436.500 FM
Uosat F 25 Jul 05:03:51 05:08:19 32° 97° (E) 05:12:46 435.120 FM
AO-7 25 Jul 05:53:10 06:01:31 74° 106° (ESE) 06:09:47 29.400 - 29.500 MHz
TMSAT-1 25 Jul 06:13:12 06:15:49 14° 299° (WNW) 06:18:25 436.925 FM
Lituanica SAT-1 25 Jul 06:15:29 06:17:11 21° 32° (NNE) 06:18:52 437.275 MHz beacon
JAS-2 25 Jul 06:16:35 06:18:07 11° 85° (E) 06:19:38 435.800 - 435.900 CW/SSB, 435.910 FM
Uosat F 25 Jul 06:42:47 06:46:58 27° 293° (WNW) 06:51:09 435.120 FM
JAS-1B 25 Jul 06:46:07 06:50:36 15° 312° (NW) 06:54:54 435.800 - 435.900 CW/SSB
MaSat-1 25 Jul 06:54:50 06:57:15 13° 47° (NE) 06:59:38 437.345 MHz
STRAND 1 25 Jul 06:59:32 07:04:30 52° 72° (ENE) 07:09:30 ?
Hamsat 25 Jul 07:04:47 07:08:54 44° 99° (E) 07:13:02 145.90 MHz
KITSAT 1 25 Jul 07:09:24 07:17:06 50° 111° (ESE) 07:24:49 435.175 FM
ISS 25 Jul 07:35:15 07:38:12 27° 30° (NNE) 07:41:07 145.800 FM
AO-7 25 Jul 07:47:10 07:53:30 25° 304° (NW) 07:59:49 29.400 - 29.500 MHz
Lituanica SAT-1 25 Jul 07:48:28 07:49:40 14° 228° (SW) 07:50:51 437.275 MHz beacon
Saudisat 1A 25 Jul 07:57:02 07:58:09 11° 107° (ESE) 07:59:17 436.775 MHz
JAS-2 25 Jul 07:58:03 08:04:13 83° 285° (WNW) 08:09:40 435.800 - 435.900 CW/SSB, 435.910 FM
PANSAT 25 Jul 08:06:16 08:08:45 17° 172° (S) 08:11:15 not established
MaSat-1 25 Jul 08:30:06 08:35:28 82° 65° (ENE) 08:40:33 437.345 MHz
STRAND 1 25 Jul 08:40:38 08:43:58 17° 267° (W) 08:47:19 ?
Hamsat 25 Jul 08:42:02 08:44:30 15° 294° (WNW) 08:46:58 145.90 MHz
SO-67 25 Jul 08:50:42 08:54:07 57° 284° (WNW) 08:57:32 435.3500 MHz FM
KITSAT 1 25 Jul 09:05:15 09:12:39 38° 310° (NW) 09:20:07 435.175 FM
ISS 25 Jul 09:11:51 09:14:53 32° 226° (SW) 09:17:54 145.800 FM
HO-68 25 Jul 09:18:29 09:23:30 20° 93° (E) 09:28:29 435.675 MHz FM
Saudisat 1A 25 Jul 09:32:44 09:37:08 69° 302° (WNW) 09:41:34 436.775 MHz
PANSAT 25 Jul 09:45:41 09:48:20 18° 185° (S) 09:50:59 not established
JAS-2 25 Jul 09:46:13 09:48:04 11° 305° (NW) 09:49:52 435.800 - 435.900 CW/SSB, 435.910 FM
MaSat-1 25 Jul 10:10:19 10:12:01 12° 262° (W) 10:13:41 437.345 MHz
Sapphire 25 Jul 10:33:29 10:37:44 23° 50° (NE) 10:41:58 437.095 MHz 1200 baud AX-25 AFSK
UKube-1 25 Jul 10:36:32 10:40:52 63° 101° (ESE) 10:45:10 145.840 MHz, 145.915 MHz
HO-68 25 Jul 11:04:38 11:11:44 69° 289° (WNW) 11:18:47 435.675 MHz FM
PCSat 25 Jul 11:06:47 11:11:58 44° 57° (ENE) 11:17:07 145.825 MHz
KITSAT 1 25 Jul 11:08:35 11:10:50 11° 337° (NNW) 11:13:05 435.175 FM
